Location: Beuerbach
(48.1459°N, 10.9174°E)
Time: 01:23:56
(UTC+00:00)

Meteor 1-21 - Pass Details

Date: 09 August 2024
Orbit: 845 x 885 km, 81.2° (Epoch: 09 September)

Event Time Altitude Azimuth Distance (km) Brightness Sun altitude
Rises 00:37:49 0° 348° (NNW) 3,418 8.3 -23.9°
Reaches altitude 10° 00:40:14 10° 348° (NNW) 2,478 7.4 -23.7°
Maximum altitude 00:45:52 90° 263° (W) 855 4.1 -23.4°
Enters shadow 00:47:24 51° 170° (S) 1,065 4.3 -23.3°
